This demonstration page uses our WeatherBlox Daily Observations layout. Learn more.

Left ArrowRight Arrow

41.55636, -103.73856

Hourly Observations for June 12, 2019

Temp ( °F °C ) Dew Point ( °F °C ) Humidity (%) Winds ( mph kmh ) Pressure ( in mb ) Visibility ( mi km ) Precip ( " mm )
6:58 pm 18:58 Mostly Cloudy 58 14.4 44 6.6 60 60 NNE 15 24 30.18 1022 10 16 0.00 0.00
7:58 pm 19:58 Mostly Cloudy 56 13.2 42 5.4 59 59 N 16 26 30.18 1022 10 16 0.00 0.00
8:58 pm 20:58 Mostly Cloudy 53 11.8 43 6.2 69 69 N 15 24 30.20 1023 10 16 0.00 0.00
9:58 pm 21:58 Mostly Cloudy 51 10.8 43 5.9 72 72 N 16 26 30.23 1024 10 16 0.00 0.00
10:58 pm 22:58 Mostly Clear 47 8.3 42 5.4 82 82 NNW 6 9 30.26 1025 10 16 0.00 0.00
11:58 pm 23:58 Partly Cloudy 45 7.2 41 4.8 85 85 NW 8 13 30.27 1025 10 16 0.00 0.00
12:58 am 00:58 Partly Cloudy 44 6.9 41 4.9 87 87 W 9 15 30.26 1025 10 16 0.00 0.00
1:58 am 01:58 Mostly Clear 44 6.4 40 4.6 88 88 WNW 6 9 30.25 1024 10 16 0.00 0.00
2:58 am 02:58 Mostly Clear 42 5.7 39 3.9 88 88 W 9 15 30.26 1025 10 16 0.00 0.00
3:58 am 03:58 Clear 42 5.6 39 3.9 89 89 W 9 15 30.28 1025 10 16 0.00 0.00
4:58 am 04:58 Clear 41 5.2 39 3.7 90 90 NW 7 11 30.27 1025 10 16 0.00 0.00
5:58 am 05:58 Sunny 41 4.8 39 3.7 93 93 W 10 17 30.28 1025 10 16 0.00 0.00
6:58 am 06:58 Sunny 47 8.3 42 5.7 84 84 WNW 8 13 30.28 1025 10 16 0.00 0.00
7:58 am 07:58 Sunny 53 11.9 44 6.6 70 70 N 10 17 30.27 1025 10 16 0.00 0.00
8:58 am 08:58 Sunny 56 13.6 45 7.4 66 66 NNW 12 19 30.27 1025 10 16 0.00 0.00
9:58 am 09:58 Mostly Cloudy 58 14.3 43 6.1 58 58 N 12 19 30.26 1025 10 16 0.00 0.00
10:58 am 10:58 Partly Cloudy 60 15.7 43 6.2 53 53 NNW 10 17 30.25 1024 10 16 0.00 0.00
11:58 am 11:58 Mostly Sunny 63 17.3 42 5.6 46 46 NNE 9 15 30.23 1024 10 16 0.00 0.00
12:58 pm 12:58 Partly Cloudy 63 17 41 4.9 45 45 N 8 13 30.22 1023 10 16 0.00 0.00
1:58 pm 13:58 Mostly Cloudy 65 18.2 40 4.5 41 41 N 8 13 30.21 1023 10 16 0.00 0.00
2:58 pm 14:58 Sunny 66 18.8 40 4.7 40 40 N 8 13 30.20 1023 10 16 0.00 0.00
3:58 pm 15:58 Mostly Sunny 66 19 41 5.1 40 40 N 9 15 30.16 1022 10 16 0.00 0.00
4:58 pm 16:58 Mostly Sunny 67 19.4 38 3.5 35 35 NE 5 7 30.14 1021 10 16 0.00 0.00
5:58 pm 17:58 Sunny 67 19.4 39 4 36 36 NNE 5 7 30.14 1021 10 16 0.00 0.00

Powered by AerisWeather